Fort Campbell, TN

2:58 AM CST on February 12, 2016 (GMT -0600)
Outlaw

Weather History for KCKV - August, 2013

Change the Weather History Date:

Tuesday, August 6, 2013

  Actual Average Record
Temperature  
Mean Temperature 76 °F -  
Max Temperature 82 °F - 100 °F (1955)
Min Temperature 69 °F - 54 °F (1948)
Degree Days  
Heating Degree Days 0    
Month to date heating degree days 0  
Since 1 July heating degree days 0  
Cooling Degree Days 11    
Month to date cooling degree days 54  
Growing Degree Days 25 (Base 50)    
Moisture  
Dew Point 72 °F    
Average Humidity 90    
Maximum Humidity 100    
Minimum Humidity 79    
Precipitation  
Precipitation 0.24 in - 1.50 in (1971)
Month to date precipitation 0.39  
Sea Level Pressure  
Sea Level Pressure 29.94 in    
Wind  
Wind Speed 2 mph (West)    
Max Wind Speed 8 mph    
Max Gust Speed 14 mph    
Visibility 8 miles    
Events Rain , Thunderstorm    
T = Trace of Precipitation, MM = Missing Value Source: NWS Daily Summary

Daily Weather History Graph

Daily Weather History Graph

Search for Another Location

Airport or City:

Trip Planner

Search our weather history database for the weather conditions in past years. The results will help you decide how hot, cold, wet, or windy it might be!

Date:

Astronomy

Aug. 06, 2013 Rise Set
Actual Time 5:59 AM CDT 7:50 PM CDT
Civil Twilight 5:31 AM CDT 8:18 PM CDT
Nautical Twilight 4:57 AM CDT 8:52 PM CDT
Astronomical Twilight 4:21 AM CDT 9:28 PM CDT
Moon 5:49 AM CDT (8/6) 7:27 PM CDT (8/6)
Length of Visible Light 14h 46m
Length of Day
13h 50m
Waning Crescent, 0% of the Moon is Illuminated
Aug 6
Waning Crescent
Aug 6
New
Aug 14
First Quarter
Aug 20
Full
Aug 28
Last Quarter

Hourly Weather History & Observations

Time (CDT) Temp. Heat Index Dew Point Humidity Pressure Visibility Wind Dir Wind Speed Gust Speed Precip Events Conditions
12:52 AM 70.0 °F - 68.0 °F 93% 29.94 in 9.0 mi Calm Calm - N/A   Overcast
1:52 AM 70.0 °F - 68.0 °F 93% 29.94 in 10.0 mi Calm Calm - N/A   Overcast
2:52 AM 70.0 °F - 68.0 °F 93% 29.91 in 10.0 mi SE 3.5 mph - 0.01 in   Overcast
3:52 AM 70.0 °F - 68.0 °F 93% 29.91 in 5.0 mi Calm Calm - 0.04 in Rain Rain
4:23 AM 69.8 °F - 68.0 °F 94% 29.92 in 10.0 mi Calm Calm - 0.01 in   Overcast
4:52 AM 70.0 °F - 68.0 °F 93% 29.91 in 8.0 mi Calm Calm - 0.01 in   Overcast
5:52 AM 70.0 °F - 68.0 °F 93% 29.92 in 7.0 mi SE 3.5 mph - N/A   Overcast
6:52 AM 70.0 °F - 68.0 °F 93% 29.92 in 5.0 mi SE 3.5 mph - N/A   Mostly Cloudy
7:52 AM 72.0 °F - 69.1 °F 91% 29.95 in 9.0 mi Calm Calm - N/A Thunderstorm Overcast
8:12 AM 71.6 °F - 69.8 °F 94% 29.95 in 10.0 mi Calm Calm - N/A   Mostly Cloudy
8:52 AM 73.9 °F - 71.1 °F 91% 29.93 in 10.0 mi Calm Calm - N/A   Scattered Clouds
9:23 AM 75.2 °F - 71.6 °F 89% 29.96 in 10.0 mi Calm Calm - N/A   Overcast
9:52 AM 75.9 °F - 73.0 °F 91% 29.95 in 10.0 mi West 3.5 mph - N/A   Overcast
10:09 AM 75.2 °F - 71.6 °F 89% 29.97 in 10.0 mi Calm Calm - N/A   Overcast
10:24 AM 75.2 °F - 71.6 °F 89% 29.97 in 10.0 mi WNW 4.6 mph - N/A   Overcast
10:33 AM 75.2 °F - 73.4 °F 94% 29.97 in 1.5 mi West 3.5 mph - 0.06 in Rain Light Rain
10:48 AM 75.2 °F - 73.4 °F 94% 29.97 in 1.0 mi NW 5.8 mph - 0.17 in Rain , Thunderstorm Heavy Rain
10:52 AM 75.0 °F - 73.0 °F 94% 29.96 in 1.0 mi NW 5.8 mph - 0.18 in Rain , Thunderstorm Rain
10:58 AM 75.2 °F - 73.4 °F 94% 29.98 in 3.0 mi WNW 4.6 mph - 0.00 in Rain , Thunderstorm Light Rain
11:05 AM 75.2 °F - 73.4 °F 94% 29.97 in 7.0 mi WNW 5.8 mph - 0.00 in Thunderstorm Overcast
11:24 AM 77.0 °F - 73.4 °F 89% 29.97 in 8.0 mi WNW 6.9 mph - 0.00 in   Overcast
11:52 AM 77.0 °F - 73.9 °F 90% 29.96 in 9.0 mi WNW 5.8 mph - 0.00 in   Overcast
12:27 PM 78.8 °F - 73.4 °F 83% 29.97 in 10.0 mi WNW 3.5 mph - N/A   Mostly Cloudy
12:48 PM 80.6 °F 85.4 °F 73.4 °F 79% 29.97 in 10.0 mi Variable 3.5 mph - N/A   Mostly Cloudy
12:52 PM 80.1 °F 84.5 °F 73.9 °F 81% 29.95 in 10.0 mi West 3.5 mph - N/A   Mostly Cloudy
1:10 PM 80.6 °F 85.4 °F 73.4 °F 79% 29.96 in 10.0 mi Calm Calm - N/A   Scattered Clouds
1:52 PM 81.0 °F 85.8 °F 73.0 °F 77% 29.94 in 10.0 mi South 3.5 mph - N/A   Scattered Clouds
2:02 PM 80.6 °F 85.4 °F 73.4 °F 79% 29.95 in 10.0 mi SSW 5.8 mph - N/A   Mostly Cloudy
2:27 PM 80.6 °F 85.4 °F 73.4 °F 79% 29.95 in 10.0 mi West 5.8 mph - N/A   Partly Cloudy
2:52 PM 81.0 °F 85.8 °F 73.0 °F 77% 29.93 in 10.0 mi WSW 4.6 mph - N/A   Clear
3:52 PM 80.1 °F 84.2 °F 73.0 °F 79% 29.92 in 10.0 mi Calm Calm - N/A   Scattered Clouds
4:52 PM 80.1 °F 84.5 °F 73.9 °F 81% 29.91 in 10.0 mi Calm Calm - N/A   Mostly Cloudy
5:52 PM 80.1 °F 84.5 °F 73.9 °F 81% 29.91 in 10.0 mi Calm Calm - N/A   Overcast
6:52 PM 79.0 °F - 73.9 °F 84% 29.92 in 9.0 mi Calm Calm - 0.00 in Rain Light Rain
7:52 PM 77.0 °F - 75.0 °F 94% 29.93 in 7.0 mi Calm Calm - 0.00 in   Overcast
8:52 PM 77.0 °F - 75.0 °F 94% 29.93 in 6.0 mi Calm Calm - N/A   Overcast
9:52 PM 77.0 °F - 75.0 °F 94% 29.94 in 7.0 mi Calm Calm - N/A   Overcast
10:52 PM 75.9 °F - 75.0 °F 97% 29.93 in 6.0 mi SSE 3.5 mph - N/A   Overcast
11:52 PM 75.9 °F - 73.9 °F 94% 29.94 in 7.0 mi Calm Calm - N/A   Overcast